1339459234319,0.997365
1339459294319,0.988823
1339459354319,0.980884
1339459414319,0.988085
1339459474319,0.990313
1339459534319,0.986080
1339459594319,0.977980
1339459654319,0.989503
1339459714319,0.989364
1339459774319,0.983417
1339459834319,0.989781
1339459894319,0.977450
1339459954319,0.989735
1339460014319,0.995162
1339460074319,0.992925
1339460134319,0.992134
1339460194319,0.993932
1339460254319,0.990278
1339460314319,0.993373
1339460374319,1.00096
1339460434319,0.996170
1339460494319,1.00531
1339460554319,1.00397
1339460614319,1.00589
1339460674319,1.00712
1339460734319,1.00779
1339460794319,0.997814
1339460854319,1.00820
1339460914319,1.00018
1339460974319,0.995258
1339461034319,0.998125
1339461094319,0.998548
1339461154319,1.00418
1339461214319,0.994252
1339461274319,1.00440
1339461334319,0.997575
1339461394319,1.00189
1339461454319,1.00247
1339461514319,0.997991
1339461574319,0.996857
1339461634319,1.00668
1339461694319,0.996048
1339461754319,1.00046
1339461814319,1.00034
1339461874319,1.00429
1339461934319,1.00801
1339461994319,1.00720
1339462054319,1.00937
1339462114319,0.998804
1339462174319,0.991234
1339462234319,0.999255
1339462294319,1.00702
1339462354319,1.00265
1339462414319,0.999958
1339462474319,1.00524
1339462534319,0.999174
1339462594319,0.998735
1339462654319,1.00435
1339462714319,1.00149
1339462774319,0.997701
1339462834330,0.999008
1339462894330,0.994745
1339462954330,0.993584
1339463014330,0.992990
1339463074330,1.00856
1339463134330,0.998532
1339463194330,1.00299
1339463254330,0.998391
1339463314330,0.998341
1339463374330,1.00187
1339463434330,0.999750
1339463494330,0.998638
1339463554330,1.00207
1339463614330,0.995466
1339463674330,1.00146
1339463734330,0.997726
1339463794330,0.994317
1339463854330,0.993626
1339463914330,0.999660
1339463974330,1.00498
1339464034330,0.994954
1339464094330,0.993780
1339464154330,0.998382
1339464214330,0.992925
1339464274330,0.996583
1339464334330,0.998405
1339464394330,0.999819
1339464454330,1.00034
1339464514330,0.998785
1339464574330,0.993331
1339464634330,0.994875
1339464694330,0.999349
1339464754330,1.00075
1339464814330,0.990117
1339464874330,0.994465
1339464934330,0.998568
1339464994330,1.00140
1339465054330,1.00048
1339465114330,0.993300
1339465174330,0.989698
1339465234330,0.996830
1339465294330,0.988712
1339465354330,1.00772
1339465414330,0.986350
1339465474330,0.988550
1339465534330,0.997776
1339465594330,0.991133
1339465654330,0.990082
1339465714330,0.994411
1339465774330,0.999868
1339465834330,0.996081
1339465894330,1.00173
1339465954330,0.994183
1339466014330,1.00398
1339466074330,0.997162
1339466134330,0.994216
1339466194330,0.998221
1339466254330,1.00113
1339466314330,0.990433
1339466374330,0.991147
1339466434340,0.999454
1339466494340,0.994026
1339466554340,1.00397
1339466614340,0.995436
1339466674340,0.997118
1339466734340,0.999304
1339466794340,0.986064
1339466854340,0.993643
1339466914340,0.990214
1339466974340,0.997991
1339467034340,0.999750
1339467094340,0.990259
1339467154340,0.992826
1339467214340,0.996030
1339467274340,0.998291
1339467334340,0.991177
1339467394340,0.995587
1339467454340,1.01332
1339467514340,1.01667
1339467574340,1.00277
1339467634340,1.01328
1339467694340,1.00935
1339467754340,0.999474
1339467814340,1.00920
1339467874340,0.997116
1339467934340,1.00684
1339467994340,1.00232
1339468054340,0.996331
1339468114340,0.998795
1339468174340,1.00020
1339468234340,0.991752
1339468294340,0.994738
1339468354340,1.00184
1339468414340,0.995864
1339468474340,0.997440
1339468534340,1.00032
1339468594340,1.00407
1339468654340,1.01439
1339468714340,1.02354
1339468774340,1.03208
1339468834340,1.01763
1339468894340,1.02263
1339468954340,1.03141
1339469014340,1.02667
1339469074340,1.02853
1339469134340,1.02943
1339469194340,1.03195
1339469254340,1.01720
1339469314340,1.01880
1339469374340,1.01542
1339469434340,1.03154
1339469494340,1.01591
1339469554340,1.01740
1339469614340,1.01430
1339469674340,1.01550
1339469734340,1.01451
1339469794340,1.00802
1339469854340,0.999392
1339469914340,1.00218
1339469974340,1.00943
1339470034350,1.00898
1339470094350,1.00716
1339470154350,1.00059
1339470214350,1.00750
1339470274350,1.00410
1339470334350,1.00032
1339470394350,1.00505
1339470454350,1.00014
1339470514350,0.995430
1339470574350,1.01051
1339470634350,1.01459
1339470694350,1.01260
1339471234350,1.04545
1339471294350,1.02928
1339471354350,1.03104
1339471414350,1.02102
1339471474350,1.03565
1339471534350,1.03292
1339471594350,1.03043
1339471654350,1.03217
1339471714350,1.02859
1339471774350,1.02236
1339471834350,1.02620
1339471894350,1.02501
1339471954350,1.02501
1339472014350,1.01730
1339472074350,1.01784
1339472134350,1.02143
1339472194350,1.01601
1339472254350,1.02048
1339472314350,1.02666
1339472374350,1.02276
1339472434350,1.01332
1339472494350,1.01271
1339472554350,1.01643
1339472614350,1.02520
1339472674350,1.01099
1339472734350,1.01831
1339472794350,1.01320
1339472854350,1.01684
1339472914350,1.01767
1339472974350,1.01828
1339473034350,1.01602
1339473094350,1.02368
1339473154350,1.02374
1339473214350,1.02334
1339473274350,1.02207
1339473334350,1.02032
1339473394350,1.02241
1339473454350,1.02788
1339473514350,1.02071
1339473574350,1.02675
1339473634359,1.01814
1339473694359,1.01277
1339473754359,1.02467
1339473814359,1.01866
1339473874359,1.01939
1339473934359,1.01831
1339473994359,1.02084
1339474054359,1.02259
1339474114359,1.01921
1339474174359,1.02346
1339474234359,1.02106
1339474294359,1.02085
1339474354359,1.02079
1339474414359,1.02000
1339474474359,1.02115
1339474534359,1.02621
1339474594359,1.02025
1339474654359,1.02609
1339474714359,1.03471
1339474774359,1.02734
1339474834359,1.02949
1339474894359,1.03898
1339474954359,1.03309
1339475014359,1.02419
1339475074359,1.02397
1339475134359,1.02140
1339475194359,1.03158
1339475254359,1.03211
1339475314359,1.00975
1339475374359,1.02487
1339475434359,1.02884
1339475494359,1.02020
1339475554359,1.01492
1339475614359,1.01440
1339475674359,1.01711
1339475734359,1.01037
1339475794359,1.01637
1339475854359,1.01874
1339475914359,1.01034
1339475974359,1.01654
1339476034359,1.01878
1339476094359,1.01795
1339476154359,1.00755
1339476214359,1.00324
1339476274359,1.01907
1339476334359,1.01043
1339476394359,1.00697
1339476454359,1.00744
1339476514359,1.00709
1339476574359,1.01638
1339476634359,1.00654
1339476694359,1.01371
1339476754359,1.00988
1339476814359,1.00631
1339476874359,1.00696
1339476934359,1.01369
1339476994359,1.00875
1339477054359,1.00851
1339477114359,1.00928
1339477174359,1.01029
1339477234369,1.00777
1339477294369,1.00932
1339477354369,1.00207
1339477414369,1.00672
1339477474369,1.00859
1339477534369,1.00829
1339477594369,1.00677
1339477654369,1.00957
1339477714369,1.01562
1339477774369,1.01814
1339477834369,1.00975
1339477894369,1.00856
1339477954369,1.02222
1339478014369,1.01553
1339478074369,1.01683
1339478134369,1.01681
1339478194369,1.02256
1339478254369,1.02103
1339478314369,1.02777
1339478374369,1.01438
1339478434369,1.02472
1339478494369,1.02414
1339478554369,1.02402
1339478614369,1.01917
1339478674369,1.02155
1339478734369,1.02410
1339478794369,1.02115
1339478854369,1.02220
1339478914369,1.02349
1339478974369,1.01453
1339479034369,1.02304
1339479094369,1.02439
1339479154369,1.02258
1339479214369,1.03821
1339479274369,1.04619
1339479334369,1.03788
1339479394369,1.03593
1339479454369,1.03714
1339479514369,1.02481
1339479574369,1.01465
1339479634369,1.02609
1339479694369,1.03253
1339479754369,1.03044
1339479814369,1.02033
1339479874369,1.02208
1339479934369,1.01875
1339479994369,1.01981
1339480054369,1.02251
1339480114369,1.01810
1339480174369,1.02885
1339480234369,1.02115
1339480294369,1.02882
1339480354369,1.03018
1339480414369,1.04167
1339480474369,1.03310
1339480534369,1.03887
1339480594369,1.04053
1339480654369,1.03200
1339480714369,1.03167
1339480774369,1.03818
1339480834378,1.02213
1339480894378,1.03012
1339480954378,1.04825
1339481014378,1.02705
1339481074378,1.03355
1339481134378,1.03055
1339481194378,1.02928
1339481254378,1.02414
1339481314378,1.03582
1339481374378,1.02795
1339481434378,1.03252
1339481494378,1.03633
1339481554378,1.04024
1339481614378,1.03571
1339481674378,1.03542
1339481734378,1.03673
1339481794378,1.03118
1339481854378,1.02630
1339481914378,1.02843
1339481974378,1.03436
1339482034378,1.04676
1339482094378,1.03299
1339482154378,1.03497
1339482214378,1.03477
1339482274378,1.03760
1339482334378,1.03280
1339482394378,1.03319
1339482454378,1.02945
1339482514378,1.03163
1339482574378,1.03378
1339482634378,1.04040
1339482694378,1.03423
1339482754378,1.03845
1339482814378,1.04102
1339482874378,1.04520
1339482934378,1.04096
1339482994378,1.04379
1339483054378,1.04394
1339483114378,1.04605
1339483174378,1.04410
1339483234378,1.05235
1339483294378,1.06192
1339483354378,1.06241
1339483414378,1.07004
1339483474378,1.07511
1339483534378,1.07509
1339483594378,1.08107
1339483654378,1.07910
1339483714378,1.06644
1339483774378,1.06007
1339483834378,1.05820
1339483894378,1.05110
1339483954378,1.04769
1339484014378,1.04474
1339484074378,1.04107
1339484134378,1.03774
1339484194378,1.02940
1339484254378,1.03776
1339484314378,1.02874
1339484374378,1.03597
1339484434387,1.03807
1339484494387,1.02851
1339484554387,1.03401
1339484614387,1.03719
1339484674387,1.03385
1339484734387,1.03348
1339484794387,1.02471
1339484854387,1.03550
1339484914387,1.03191
1339484974387,1.02871
1339485034387,1.02329
1339485094387,1.03066
1339485154387,1.03827
1339485214387,1.04591
1339485274387,1.06455
1339485334387,1.06011
1339485394387,1.04699
1339485454387,1.03860
1339485514387,1.04398
1339485574387,1.04525
1339485634387,1.03496
1339485694387,1.03613
1339485754387,1.03169
1339485814387,1.03244
1339485874387,1.03658
1339485934387,1.04507
1339485994387,1.03935
1339486054387,1.04490
1339486114387,1.04395
1339486174387,1.03563
1339486234387,1.03651
1339486294387,1.04028
1339486354387,1.03477
1339486414387,1.03330
1339486474387,1.03372
1339486534387,1.03343
1339486594387,1.03506
1339486654387,1.02145
1339486714387,1.02860
1339486774387,1.02327
1339486834387,1.03475
1339486894387,1.03155
1339486954387,1.02065
1339487014387,1.02984
1339487074387,1.02448
1339487134387,1.01707
1339487194387,1.01724
1339487254387,1.02204
1339487314387,1.02478
1339487374387,1.01436
1339487434387,1.01761
1339487494387,1.01701
1339487554387,1.02124
1339487614387,1.01694
1339487674387,1.01187
1339487734387,1.02838
1339487794387,1.02527
1339487854387,1.01543
1339487914387,1.01397
1339487974387,1.00839
1339488034396,1.02411
1339488094396,1.01374
1339488154396,1.01498
1339488214396,1.01189
1339488274396,1.01892
1339488334396,1.01893
1339488394396,1.02546
1339488454396,1.01876
1339488514396,1.01864
1339488574396,1.01234
1339488634396,1.02296
1339488694396,1.02751
1339488754396,1.02796
1339488814396,1.02018
1339488874396,1.02298
1339488934396,1.02397
1339488994396,1.01777
1339489054396,1.02129
1339489114396,1.02344
1339489174396,1.01872
1339489234396,1.02027
1339489294396,1.01795
1339489354396,1.02175
1339489414396,1.02625
1339489474396,1.02237
1339489534396,1.02238
1339489594396,1.02665
1339489654396,1.01682
1339489714396,1.01945
1339489774396,1.02054
1339489834396,1.02609
1339489894396,1.02525
1339489954396,1.01908
1339490014396,1.02467
1339490074396,1.01854
1339490134396,1.02870
1339490194396,1.02300
1339490254396,1.02052
1339490314396,1.01776
1339490374396,1.02477
1339490434396,1.01685
1339490494396,1.01638
1339490554396,1.02112
1339490614396,1.02606
1339490674396,1.02048
1339490734396,1.02532
1339490794396,1.02228
1339490854396,1.02505
1339490914396,1.02970
1339490974396,1.02831
1339491034396,1.03341
1339491094396,1.03035
1339491154396,1.02103
1339491214396,1.02527
1339491274396,1.02362
1339491334396,1.02209
1339491394396,1.02603
1339491454396,1.02850
1339491514396,1.02919
1339491574396,1.02960
1339491634406,1.01696
1339491694406,1.03491
1339491754406,1.03835
1339491814406,1.04984
1339491874406,1.06089
1339491934406,1.05001
1339491994406,1.04424
1339492054406,1.04137
1339492114406,1.04810
1339492174406,1.05747
1339492234406,1.05222
1339492294406,1.05776
1339492354406,1.04820
1339492414406,1.05476
1339492474406,1.05107
1339492534406,1.04454
1339492594406,1.04656
1339492654406,1.04674
1339492714406,1.04702
1339492774406,1.03966
1339492834406,1.04008
1339492894406,1.03768
1339492954406,1.02793
1339493014406,1.02829
1339493074406,1.03754
1339493134406,1.03432
1339493194406,1.03849
1339493254406,1.02640
1339493314406,1.01570
1339493374406,1.02350
1339493434406,1.02689
1339493494406,1.02348
1339493554406,1.02485
1339493614406,1.02237
1339493674406,1.02096
1339493734406,1.02296
1339493794406,1.03350
1339493854406,1.01501
1339493914406,1.03509
1339493974406,1.01570
1339494034406,1.01656
1339494094406,1.02339
1339494154406,1.01502
1339494214406,1.01420
1339494274406,1.01207
1339494334406,1.01753
1339494394406,1.01699
1339494454406,1.01326
1339494514406,1.00482
1339494574406,1.01080
1339494634406,1.00697
1339494694406,1.01150
1339494754406,1.01667
1339494814406,1.01581
1339494874406,1.00351
1339494934406,1.01908
1339494994406,1.00983
1339495054406,1.00876
1339495114406,1.01082
1339495174406,1.01198
1339495234415,0.997281
1339495294415,1.01568
1339495354415,0.999189
1339495414415,1.01199
1339495474415,1.00569
1339495534415,1.01346
1339495594415,1.00707
1339495654415,1.00828
1339495714415,1.00523
1339495774415,1.00342
1339495834415,0.995415
1339495894415,0.998787
1339495954415,1.00490
1339496014415,1.00239
1339496074415,1.00413
1339496134415,0.995750
1339496194415,0.995542
1339496254415,0.995216
1339496314415,1.00884
1339496374415,0.997042
1339496434415,0.998004
1339496494415,0.995517
1339496554415,0.997109
1339496614415,0.994943
1339496674415,0.993309
1339496734415,0.991882
1339496794415,0.991068
1339496854415,0.991031
1339496914415,0.998148
1339496974415,1.00095
1339497034415,0.997475
1339497094415,0.999716
1339497154415,1.00390
1339497214415,1.00284
1339497274415,0.999717
1339497334415,1.00222
1339497394415,0.992259
1339497454415,0.996984
1339497514415,0.994053
1339497574415,0.993955
1339497634415,0.991494
1339497694415,0.993177
1339497754415,0.998051
1339497814415,0.987601
1339497874415,0.997169
1339497934415,0.992089
1339497994415,0.995061
1339498054415,0.994678
1339498114415,0.999165
1339498174415,0.991395
1339498234415,0.986665
1339498294415,0.992318
1339498354415,0.996452
1339498414415,0.982864
1339498474415,0.992258
1339498534415,0.987136
1339498594415,0.993675
1339498654415,0.993142
1339498714415,0.991252
1339498774415,0.986910
1339498834424,0.983773
1339498894424,0.991518
1339498954424,0.986038
1339499014424,0.995773
1339499074424,0.991170
1339499134424,0.992960
1339499194424,0.990920
1339499254424,0.994979
1339499314424,0.990468
1339499374424,0.979216
1339499434424,0.978663
1339499494424,0.988056
1339499554424,0.993056
1339499614424,0.995599
1339499674424,0.992595
1339499734424,0.991449
1339499794424,0.999665
1339499854424,1.00249
1339499914424,0.991065
1339499974424,0.994884
1339500034424,0.990484
1339500094424,0.996424
1339500154424,0.994666
1339500214424,1.00359
1339500274424,0.996254
1339500334424,0.996218
1339500394424,1.00215
1339500454424,0.987811
1339500514424,0.997577
1339500574424,0.993950
1339500634424,0.998598
1339500694424,0.996183
1339500754424,0.994546
1339500814424,0.995968
1339500874424,0.999926
1339500934424,0.998687
1339500994424,1.00092
1339501054424,0.998409
1339501114424,0.992241
1339501174424,0.998155
1339501234424,0.993630
1339501294424,1.00389
1339501354424,1.00159
1339501414424,0.996951
1339501474424,0.993129
1339501534424,0.994958
1339501594424,0.993726
1339501654424,1.00359
1339501714424,1.00186
1339501774424,0.998747
1339501834424,1.00491
1339501894424,1.00412
1339501954424,1.00054
1339502014424,1.00758
1339502074424,0.998543
1339502134424,1.00081
1339502194424,1.00012
1339502254424,0.997942
1339502314424,1.00116
1339502374424,0.993037
1339502434433,1.00184
1339502494433,0.991680
1339502554433,1.00232
1339502614433,1.00298
1339502674433,0.996664
1339502734433,0.994588
1339502794433,0.995537
1339502854433,0.995444
1339502914433,0.996136
1339502974433,1.00689
1339503034433,1.00443
1339503094433,0.998938
1339503154433,1.00172
1339503214433,1.00853
1339503274433,1.00529
1339503334433,1.00266
1339503394433,1.01582
1339503454433,1.01232
1339503514433,1.01209
1339503574433,1.00745
1339503634433,1.01317
1339503694433,1.00254
1339503754433,1.00498
1339503814433,1.00742
1339503874433,1.00071
1339503934433,1.00827
1339503994433,1.00362
1339504054433,1.00251
1339504114433,0.998563
1339504174433,1.00524
1339504234433,0.997847
1339504294433,0.997298
1339504354433,1.00351
1339504414433,0.993082
1339504474433,0.997843
1339504534433,0.991497
1339504594433,0.996779
1339504654433,0.998789
1339504714433,0.994952
1339504774433,1.00391
1339504834433,0.995884
1339504894433,0.998114
1339504954433,0.999820
1339505014433,0.998974
1339505074433,0.996498
1339505134433,0.996510
1339505194433,1.00278
1339505254433,0.993980
1339505314433,1.00234
1339505374433,0.993724
1339505434433,0.998590
1339505494433,1.00093
1339505554433,1.00219
1339505614433,0.997973
1339505674433,1.00156
1339505734433,1.00370
1339505794433,0.998914
1339505854433,0.995530
1339505914433,0.994477
1339505974433,1.00210
1339506034442,0.993807
1339506094442,0.995028
1339506154442,0.992954
1339506214442,0.999568
1339506274442,0.989873
1339506334442,0.995590
1339506394442,0.997972
1339506454442,0.995867
1339506514442,0.990741
1339506574442,0.996084
1339506634442,0.995422
1339506694442,0.995184
1339506754442,1.00678
1339506814442,0.998229
1339506874442,0.995592
1339506934442,1.00710
1339506994442,1.00218
1339507054442,0.993483
1339507114442,0.995198
1339507174442,1.00603
1339507234442,1.00177
1339507294442,1.00858
1339507354442,1.00803
1339507414442,1.01233
1339507474442,1.01201
1339507534442,1.01377
1339507594442,1.01620
1339507654442,1.01249
1339507714442,1.00919
1339507774442,1.01087
1339507834442,1.01204
1339507894442,1.01544
1339507954442,1.00650
1339508014442,1.00630
1339508074442,1.00125
1339508134442,1.00640
1339508194442,1.00844
1339508254442,1.01034
1339508314442,1.01051
1339508374442,0.997431
1339508434442,1.01018
1339508494442,1.00672
1339508554442,1.00450
1339508614442,1.00510
1339508674442,1.01599
1339508734442,1.01206
1339508794442,1.01142
1339508854442,1.00394
1339508914442,1.00781
1339508974442,1.01052
1339509034442,1.01168
1339509094442,1.00423
1339509154442,1.01554
1339509214442,1.00150
1339509274442,1.00558
1339509334442,1.00495
1339509394442,1.00118
1339509454442,1.00378
1339509514442,1.01639
1339509574442,1.00909
1339509634451,1.00870
1339509694451,1.00322
1339509754451,1.00937
1339509814451,0.999143
1339509874451,1.00597
1339509934451,1.00822
1339509994451,1.00716
1339510054451,1.00757
1339510114451,1.01165
1339510174451,1.00931
1339510234451,1.00530
1339510294451,1.00387
1339510354451,1.00264
1339510414451,1.00478
1339510474451,0.996095
1339510534451,0.991926
1339510594451,1.00413
1339510654451,0.996310
1339510714451,0.994131
1339510774451,1.00207
1339510834451,0.996258
1339510894451,1.00140
1339510954451,0.996723
1339511014451,0.996759
1339511074451,1.00630
1339511134451,0.987075
1339511194451,1.00169
1339511254451,1.00011
1339511314451,0.993920
1339511374451,0.996396
1339511434451,0.994582
1339511494451,0.990444
1339511554451,0.987330
1339511614451,0.997932
1339511674451,0.996298
1339511734451,0.997457
1339511794451,1.00208
1339511854451,0.998802
1339511914451,0.990507
1339511974451,0.993211
1339512034451,0.992691
1339512094451,1.00150
1339512154451,0.999786
1339512214451,0.994770
1339512274451,1.00086
1339512334451,0.997285
1339512394451,1.00600
1339512454451,0.996913
1339512514451,0.995852
1339512574451,1.00173
1339512634451,0.991015
1339512694451,0.997772
1339512754451,0.986789
1339512814451,0.997060
1339512874451,1.00086
1339512934451,0.997048
1339512994451,0.998868
1339513054451,1.00319
1339513114451,0.996907
1339513174451,1.00513
1339513234460,0.998354
1339513294461,1.00208
1339513354461,1.00193
1339513414460,0.999790
1339513474460,1.00246
1339513534460,1.00723
1339513594460,1.00167
1339513654461,0.995178
1339513714461,0.999873
1339513774461,1.00392
1339513834461,1.00642
1339513894461,1.00396
1339513954461,0.998248
1339514014461,1.00904
1339514074460,1.00060
1339514134460,1.01921
1339514194460,1.01280
1339514254460,1.00919
1339514314460,1.00327
1339514374460,1.01338
1339514434460,0.998323
1339514494460,1.01164
1339514554460,1.01448
1339514614460,1.01264
1339514674461,0.998199
1339514734460,1.00775
1339514794460,1.00211
1339514854460,1.00794
1339514914460,1.01710
1339514974461,1.01536
1339515034461,1.01786
1339515094461,1.01541
1339515154461,1.01669
1339515214461,1.02541
1339515274461,1.01645
1339515334461,1.02078
1339515394461,1.02104
1339515454460,1.01719
1339515514460,1.01559
1339515574460,1.02650
1339515634460,1.02128
1339515694460,1.02279
1339515754460,1.02740
1339515814460,1.02160
1339515874460,1.02422
1339515934460,1.02639
1339515994461,1.03550
1339516054461,1.02287
1339516114460,1.02664
1339516174460,1.02548
1339516234460,1.02067
1339516294460,1.03265
1339516354461,1.02423
1339516414461,1.02279
1339516474461,1.02725
1339516534461,1.03517
1339516594461,1.02212
1339516654461,1.02027
1339516714461,1.02224
1339516774460,1.01518
1339516834470,1.03083
1339516894470,1.02080
1339516954470,1.02104
1339517014470,1.02709
1339517074470,1.02099
1339517134470,1.02861
1339517194470,1.02142
1339517254470,1.02043
1339517314470,1.02267
1339517374470,1.02658
1339517434470,1.03171
1339517494470,1.01836
1339517554470,1.03223
1339517614470,1.02226
1339517674470,1.02408
1339517734470,1.02465
1339517794470,1.01834
1339517854470,1.02993
1339517914470,1.03296
1339517974470,1.02685
1339518034470,1.02485
1339518094470,1.02921
1339518154470,1.02896
1339518214470,1.03217
1339518274470,1.03101
1339518334470,1.03097
1339518394470,1.02379
1339518454470,1.02657
1339518514470,1.02621
1339518574470,1.02300
1339518634470,1.03015
1339518694470,1.02726
1339518754470,1.02210
1339518814470,1.02661
1339518874470,1.03223
1339518934470,1.03011
1339518994470,1.02737
1339519054470,1.03389
1339519114470,1.03799
1339519174470,1.03280
1339519234470,1.03097
1339519294470,1.03035
1339519354470,1.03117
1339519414470,1.03084
1339519474470,1.02576
1339519534470,1.03077
1339519594470,1.03274
1339519654470,1.03132
1339519714470,1.03257
1339519774470,1.03861
1339519834470,1.03191
1339519894470,1.04176
1339519954470,1.04532
1339520014470,1.04171
1339520074470,1.04040
1339520134470,1.04542
1339520194470,1.04918
1339520254470,1.04557
1339520314470,1.04146
1339520374470,1.04675
1339520434480,1.05635
1339520494480,1.04831
1339520554480,1.06311
1339520614480,1.05541
1339520674480,1.05362
1339520734480,1.04778
1339520794480,1.04473
1339520854480,1.04990
1339520914480,1.04750
1339520974480,1.04656
1339521034480,1.05115
1339521094480,1.05914
1339521154480,1.04835
1339521214480,1.05371
1339521274480,1.05117
1339521334480,1.04772
1339521394480,1.05827
1339521454480,1.04439
1339521514480,1.05131
1339521574480,1.04466
1339521634480,1.05498
1339521694480,1.04877
1339521754480,1.04580
1339521814480,1.05261
1339521874480,1.04481
1339521934480,1.05379
1339521994480,1.04841
1339522054480,1.05119
1339522114480,1.04653
1339522174480,1.04214
1339522234480,1.05499
1339522294480,1.04747
1339522354480,1.05776
1339522414480,1.06057
1339522474480,1.06665
1339522534480,1.06163
1339522594480,1.06359
1339522654480,1.05641
1339522714480,1.06849
1339522774480,1.05219
1339522834480,1.04682
1339522894480,1.05502
1339522954480,1.04587
1339523014480,1.05142
1339523074480,1.04824
1339523134480,1.04879
1339523194480,1.05161
1339523254480,1.05582
1339523314480,1.04571
1339523374480,1.04809
1339523434480,1.05346
1339523494480,1.03825
1339523554480,1.04412
1339523614480,1.03847
1339523674480,1.03633
1339523734480,1.02893
1339523794480,1.04265
1339523854480,1.04089
1339523914480,1.03975
1339523974480,1.03720
1339524034490,1.03616
1339524094490,1.05057
1339524154490,1.04806
1339524214490,1.03462
1339524274490,1.03885
1339524334490,1.02427